Погода в Романовской

Россия / Ростовская область     47°32′28″N   42°01′19″E
темп.,
°C
ветер,
м/с
пор.,
м/с
влажн.,
%
обл.,
%
осадки,
мм/ч
давл.,
гПа
погр.,
м
19 апреля, пн
пн1900:00+10вюв1192100 0.0 101627
03:00+10ссз1193100 0.1 101618
06:00+10св1294100 0.2 101565
09:00+11ссв1289100 0.2 1015272
12:00+12в218591 0.1 1014357
15:00+12ююв229025 0.1 1014129
18:00+12юз2388100 0.0 1013130
21:00+11зюз2294100 0.1 101426
20 апреля, вт
вт2000:00+10ююз119571 0.0 101312
03:00+9вюв2296100 0.0 101222
06:00+10ю2297100 0.6 101269
09:00+12юв1693100 2.9 1010318
12:00+14в8159160 3.6 1006806
15:00+19ююв9146916 3.9 1004880
18:00+17ююз6118658 1.2 1005523
21:00+13ююз6138914 1.3 1008415
21 апреля, ср
ср2100:00+11юз81483100 0.0 1011869
03:00+9зюз614870 0.0 1012629
06:00+8юз510923 0.0 1015391
09:00+12зюз6875100 0.0 1017742
12:00+15юз566289 0.1 10171392
15:00+15юз676115 0.4 10171296
18:00+14зюз587213 0.8 1018532
21:00+10юз368682 0.8 102099
22 апреля, чт
чт2200:00+9юз34925 0.0 102084
03:00+8з3393100 0.0 102148
06:00+8з2391100 0.0 102275
09:00+13з34675 0.0 1023578
12:00+16зсз22515 0.0 10231457
15:00+18з224425 0.0 10222008
18:00+16зсз225893 0.0 102247
21:00+13с1162100 0.0 102311
23 апреля, пт
пт2300:00+12з116194 0.0 102310
03:00+11з116781 0.0 102310
06:00+11сз117890 0.0 102312
09:00+14сз116588 0.1 1024265
12:00+18зюз224434 0.9 10231913
15:00+18з22446 0.9 10221836
18:00+17зюз115599 0.0 102213
21:00+15ю2255100 0.0 102212